Flag for Canada Weather past 2 weeks in Camrose, Alberta, Canada

Now
37 °F

Light rain. Overcast.


Feels Like: 30 °F
Forecast: 31 / 37 °F
Wind: 12 mph from East

Location: Edmonton International

Current Time: Apr 24, 2015 at 10:44:05 PM

Latest Report: Apr 24, 2015 at 10:00 PM


Visibility: 15 mi

Pressure: 29.88 "Hg

Humidity: 70%

Dew point: 28 °F

Location of CamroseLocation

Historic Weather in Camrose — Graph

°F

Camrose temperature yesterday

Maximum temperature yesterday: 50 °F (at 4:00 PM)
Minimum temperature yesterday: 30 °F (at 7:00 AM)
Average temperature yesterday: 40 °F

Past Weeks' High & Low Weather Summary

 TemperatureHumidityPressure
High72 °F (Apr 22, 3:00 PM)93% (Apr 17, 10:00 PM)30.37 "Hg (Apr 17, 10:00 PM)
Low19 °F (Apr 19, 12:00 AM)15% (Apr 10, 3:00 PM)29.31 "Hg (Apr 11, 12:00 PM)
Average43 °F48%29.89 "Hg
* Reported Apr 9 9:00 PM — Apr 24 9:00 PM, Camrose, Weather by CustomWeather, © 2015

Note: Actual official high and low records may vary slightly from our data, if they occured in-between our weather recording intervals... More about our weather records

Advertising

Camrose weather history for previous 24 hours

 ConditionsComfort  
Time TempWeatherWind HumidityBarometerVisibility
9:00 PM
Fri, Apr 24
37 °FDrizzle. Low clouds.15 mph75%29.86 "Hg15 mi
8:51 PM37 °FDrizzle. Low clouds.13 mph75%29.86 "Hg15 mi
8:00 PM37 °FMostly cloudy.15 mph75%29.85 "Hg15 mi
7:55 PM37 °FMostly cloudy.16 mph75%29.85 "Hg15 mi
7:00 PM39 °FMostly cloudy.14 mph75%29.84 "Hg15 mi
6:49 PM39 °FMostly cloudy.14 mph75%29.84 "Hg15 mi
5:00 PM43 °FMore clouds than sun.14 mph66%29.80 "Hg15 mi
4:00 PM43 °FMore clouds than sun.12 mph71%29.80 "Hg15 mi
3:00 PM43 °FOvercast.14 mph66%29.79 "Hg15 mi
2:00 PM43 °FOvercast.12 mph71%29.80 "Hg15 mi
1:00 PM41 °FOvercast.14 mph70%29.80 "Hg15 mi
12:00 PM41 °FMostly cloudy.8 mph70%29.80 "Hg15 mi
11:02 AM41 °FOvercast.12 mph70%29.79 "Hg12 mi
10:00 AM37 °FLow clouds.8 mph87%29.80 "Hg7 mi
9:53 AM39 °FLow clouds.9 mph81%29.79 "Hg7 mi
9:00 AM37 °FFog.13 mph87%29.78 "Hg6 mi
8:48 AM37 °FFog.10 mph87%29.77 "Hg5 mi
8:00 AM37 °FFog.8 mph87%29.77 "Hg3 mi
7:00 AM36 °FFog.3 mph93%29.77 "Hg2 mi
6:00 AM32 °FMostly cloudy.6 mph93%29.76 "Hg10 mi
5:00 AM28 °FPartly cloudy.No wind93%29.76 "Hg15 mi
4:00 AM28 °FPartly cloudy.2 mph93%29.76 "Hg15 mi
3:00 AM28 °FPassing clouds.3 mph93%29.76 "Hg15 mi
2:00 AM25 °FPassing clouds.5 mph93%29.77 "Hg15 mi
1:00 AM25 °FPartly cloudy.No wind86%29.77 "Hg15 mi
12:00 AM28 °FPassing clouds.2 mph93%29.77 "Hg15 mi
11:00 PM
Thu, Apr 23
34 °FPassing clouds.6 mph87%29.75 "Hg15 mi
10:00 PM30 °FPassing clouds.2 mph86%29.76 "Hg15 mi
Weather by CustomWeather, © 2015

See weather overviewHow to use our weather pages